• In Hungary
  • List of Countries
  • For 7 days
  • Water Temperature
  • Satellite Maps
  • Weather Map
  • News
  • Weather Widgets
  • user-avatar
    Login

    Hourly Weather Kazanlak

    Today, 21 September, Friday

    Time Temperature Precipitation Wind Pressure Humidity
    00:00 +15°C° 0 mm 1 mps 710 mmHg 64%
    01:00 +15°C° 0 mm 1 mps 710 mmHg 66%
    02:00 +14°C° 0 mm 1 mps 710 mmHg 67%
    03:00 +14°C° 0 mm 1 mps 710 mmHg 68%
    04:00 +14°C° 0 mm 1 mps 710 mmHg 69%
    05:00 +14°C° 0 mm 1 mps 710 mmHg 69%
    06:00 +15°C° 0 mm 1 mps 710 mmHg 65%
    07:00 +16°C° 0 mm 1 mps 710 mmHg 60%
    08:00 +19°C° 0 mm 1 mps 710 mmHg 55%
    09:00 +21°C° 0 mm 1 mps 711 mmHg 49%
    10:00 +23°C° 0 mm 1 mps 711 mmHg 42%
    11:00 +25°C° 0 mm 1 mps 711 mmHg 35%
    12:00 +26°C° 0 mm 2 mps 711 mmHg 32%
    13:00 +26°C° 0 mm 2 mps 711 mmHg 29%
    14:00 +27°C° 0 mm 2 mps 711 mmHg 27%
    15:00 +27°C° 0 mm 2 mps 710 mmHg 28%
    16:00 +26°C° 0 mm 2 mps 710 mmHg 30%
    17:00 +26°C° 0 mm 2 mps 709 mmHg 32%
    18:00 +24°C° 0 mm 2 mps 709 mmHg 37%
    19:00 +21°C° 0 mm 2 mps 709 mmHg 41%
    20:00 +19°C° 0 mm 2 mps 709 mmHg 46%
    21:00 +19°C° 0 mm 1 mps 709 mmHg 50%
    22:00 +18°C° 0 mm 1 mps 709 mmHg 54%
    23:00 +18°C° 0 mm 1 mps 709 mmHg 58%

    Tomorrow, 22 September, Saturday

    Time Temperature Precipitation Wind Pressure Humidity
    00:00 +16°C° 0 mm 1 mps 709 mmHg 61%
    01:00 +16°C° 0 mm 1 mps 709 mmHg 64%
    02:00 +16°C° 0 mm 1 mps 709 mmHg 67%
    03:00 +15°C° 0 mm 1 mps 709 mmHg 68%
    04:00 +15°C° 0 mm 1 mps 709 mmHg 68%
    05:00 +15°C° 0 mm 1 mps 709 mmHg 69%
    06:00 +16°C° 0 mm 1 mps 709 mmHg 64%
    07:00 +18°C° 0 mm 1 mps 709 mmHg 60%
    08:00 +20°C° 0 mm 1 mps 710 mmHg 55%
    09:00 +22°C° 0 mm 1 mps 710 mmHg 47%
    10:00 +24°C° 0 mm 1 mps 710 mmHg 40%
    11:00 +26°C° 0 mm 1 mps 710 mmHg 33%
    12:00 +27°C° 0 mm 1 mps 710 mmHg 30%
    13:00 +28°C° 0 mm 1 mps 710 mmHg 28%
    14:00 +29°C° 0 mm 1 mps 710 mmHg 26%
    15:00 +29°C° 0 mm 1 mps 709 mmHg 27%
    16:00 +28°C° 0 mm 1 mps 709 mmHg 28%
    17:00 +28°C° 0 mm 1 mps 709 mmHg 30%
    18:00 +26°C° 0 mm 1 mps 709 mmHg 33%
    19:00 +23°C° 0 mm 1 mps 709 mmHg 36%
    20:00 +21°C° 0 mm 1 mps 709 mmHg 39%
    21:00 +21°C° 0 mm 1 mps 709 mmHg 39%
    22:00 +20°C° 0 mm 1 mps 709 mmHg 40%
    23:00 +20°C° 0 mm 1 mps 710 mmHg 41%

    Day after tomorrow, 23 September, Sunday

    Time Temperature Precipitation Wind Pressure Humidity
    00:00 +19°C° 0 mm 2 mps 710 mmHg 44%
    01:00 +18°C° 0 mm 2 mps 710 mmHg 47%
    02:00 +18°C° 0 mm 2 mps 710 mmHg 49%
    03:00 +17°C° 0 mm 2 mps 710 mmHg 53%
    04:00 +17°C° 0 mm 2 mps 710 mmHg 57%
    05:00 +17°C° 0 mm 3 mps 710 mmHg 60%
    06:00 +17°C° 0 mm 3 mps 711 mmHg 57%
    07:00 +18°C° 0 mm 3 mps 711 mmHg 54%
    08:00 +19°C° 0 mm 4 mps 712 mmHg 50%
    09:00 +20°C° 0 mm 4 mps 712 mmHg 46%
    10:00 +22°C° 0 mm 4 mps 713 mmHg 41%
    11:00 +23°C° 0 mm 4 mps 713 mmHg 36%
    12:00 +25°C° 0 mm 3 mps 713 mmHg 34%
    13:00 +26°C° 0 mm 3 mps 713 mmHg 32%
    14:00 +27°C° 0 mm 3 mps 713 mmHg 31%
    15:00 +26°C° 0 mm 3 mps 713 mmHg 31%
    16:00 +26°C° 0 mm 3 mps 712 mmHg 32%
    17:00 +25°C° 0 mm 2 mps 712 mmHg 32%
    18:00 +23°C° 0 mm 2 mps 712 mmHg 35%
    19:00 +20°C° 0 mm 2 mps 712 mmHg 38%
    20:00 +18°C° 0 mm 2 mps 713 mmHg 41%
    21:00 +18°C° 0 mm 2 mps 713 mmHg 45%
    22:00 +17°C° 0 mm 2 mps 713 mmHg 48%
    23:00 +16°C° 0 mm 2 mps 713 mmHg 52%

    24 September, Monday

    Time Temperature Precipitation Wind Pressure Humidity
    00:00 +16°C° 0 mm 2 mps 712 mmHg 57%
    01:00 +15°C° 0 mm 2 mps 712 mmHg 62%
    02:00 +15°C° 0 mm 2 mps 712 mmHg 68%
    03:00 +14°C° 0 mm 2 mps 711 mmHg 71%
    04:00 +14°C° 0 mm 2 mps 711 mmHg 75%
    05:00 +14°C° 0 mm 1 mps 711 mmHg 78%
    06:00 +15°C° 0 mm 2 mps 710 mmHg 75%
    07:00 +16°C° 0 mm 2 mps 710 mmHg 72%
    08:00 +17°C° 0 mm 2 mps 710 mmHg 69%
    09:00 +19°C° 0 mm 2 mps 709 mmHg 61%
    10:00 +21°C° 0 mm 3 mps 709 mmHg 54%
    11:00 +24°C° 0 mm 3 mps 709 mmHg 46%
    12:00 +26°C° 0 mm 3 mps 708 mmHg 42%
    13:00 +27°C° 0 mm 3 mps 708 mmHg 39%
    14:00 +28°C° 0 mm 3 mps 707 mmHg 35%
    15:00 +28°C° 0 mm 2 mps 707 mmHg 35%
    16:00 +28°C° 0 mm 2 mps 706 mmHg 36%
    17:00 +28°C° 0 mm 1 mps 706 mmHg 37%
    18:00 +26°C° 0 mm 2 mps 705 mmHg 42%
    19:00 +24°C° 0 mm 2 mps 705 mmHg 46%
    20:00 +21°C° 0 mm 2 mps 705 mmHg 50%
    21:00 +20°C° 0 mm 3 mps 706 mmHg 52%
    22:00 +19°C° 0 mm 4 mps 706 mmHg 53%
    23:00 +19°C° 0 mm 5 mps 707 mmHg 55%

    25 September, Tuesday

    Time Temperature Precipitation Wind Pressure Humidity
    00:00 +16°C° 0 mm 6 mps 707 mmHg 53%
    01:00 +15°C° 0 mm 6 mps 708 mmHg 52%
    02:00 +14°C° 0 mm 7 mps 708 mmHg 50%
    03:00 +12°C° 0 mm 7 mps 708 mmHg 48%
    04:00 +11°C° 0 mm 7 mps 709 mmHg 46%
    05:00 +11°C° 0 mm 7 mps 709 mmHg 44%
    06:00 +11°C° 0 mm 7 mps 709 mmHg 43%
    07:00 +11°C° 0 mm 7 mps 710 mmHg 41%
    08:00 +11°C° 0 mm 7 mps 710 mmHg 40%
    09:00 +11°C° 0 mm 7 mps 711 mmHg 38%
    10:00 +12°C° 0 mm 7 mps 711 mmHg 36%
    11:00 +12°C° 0 mm 7 mps 712 mmHg 35%
    12:00 +14°C° 0 mm 7 mps 712 mmHg 32%
    13:00 +15°C° 0 mm 6 mps 712 mmHg 30%
    14:00 +16°C° 0 mm 6 mps 712 mmHg 27%
    15:00 +15°C° 0 mm 6 mps 712 mmHg 27%
    16:00 +15°C° 0 mm 6 mps 712 mmHg 28%
    17:00 +15°C° 0 mm 6 mps 712 mmHg 28%
    18:00 +13°C° 0 mm 5 mps 712 mmHg 29%
    19:00 +11°C° 0 mm 4 mps 712 mmHg 31%
    20:00 +10°C° 0 mm 3 mps 713 mmHg 33%
    21:00 +9°C° 0 mm 3 mps 713 mmHg 34%
    22:00 +8°C° 0 mm 3 mps 713 mmHg 35%
    23:00 +7°C° 0 mm 3 mps 714 mmHg 37%

    26 September, Wednesday

    Time Temperature Precipitation Wind Pressure Humidity
    00:00 +7°C° 0 mm 3 mps 713 mmHg 39%
    01:00 +5°C° 0 mm 3 mps 713 mmHg 42%
    02:00 +4°C° 0 mm 3 mps 713 mmHg 44%
    03:00 +5°C° 0 mm 2 mps 713 mmHg 46%
    04:00 +4°C° 0 mm 2 mps 713 mmHg 48%
    05:00 +4°C° 0 mm 2 mps 713 mmHg 49%
    06:00 +5°C° 0 mm 2 mps 713 mmHg 47%
    07:00 +6°C° 0 mm 2 mps 714 mmHg 44%
    08:00 +7°C° 0 mm 2 mps 714 mmHg 41%
    09:00 +9°C° 0 mm 2 mps 714 mmHg 37%
    10:00 +11°C° 0 mm 3 mps 714 mmHg 32%
    11:00 +12°C° 0 mm 3 mps 713 mmHg 28%
    12:00 +13°C° 0 mm 3 mps 713 mmHg 26%
    13:00 +13°C° 0 mm 3 mps 712 mmHg 25%
    14:00 +14°C° 0 mm 3 mps 712 mmHg 23%
    15:00 +13°C° 0 mm 4 mps 712 mmHg 26%
    16:00 +12°C° 0 mm 4 mps 712 mmHg 30%
    17:00 +12°C° 0 mm 4 mps 712 mmHg 33%
    18:00 +10°C° 0 mm 4 mps 712 mmHg 41%
    19:00 +8°C° 0 mm 4 mps 712 mmHg 49%
    20:00 +8°C° 0 mm 3 mps 712 mmHg 56%
    21:00 +7°C° 0.1 mm 3 mps 713 mmHg 61%
    22:00 +7°C° 0.1 mm 3 mps 713 mmHg 66%
    23:00 +5°C° 0.1 mm 3 mps 713 mmHg 71%
    Show more